Regional Weather Roundup
Issued by NWS Mobile, AL

Home | Current Version | Previous Version | Text Only | Print | Product List | Glossary On
Versions: 1 2 3 4 5 6 7 8 9 10 11 12 13 14 15 16 17 18 19 20 21 22 23 24 25 26 27 28
000
ASUS44 KMOB 261912
RWRMOB
REGIONAL WEATHER ROUNDUP
NATIONAL WEATHER SERVICE MOBILE AL
200 PM CDT MON SEP 26 2016

NOTE: "FAIR" INDICATES FEW OR NO CLOUDS BELOW 12,000 FEET WITH NO
      SIGNIFICANT WEATHER AND/OR OBSTRUCTIONS TO VISIBILITY.

  * THESE STATIONS ARE PART OF THE UNIVERSITY OF SOUTH ALABAMA
    MESONET AND ARE NOT UNDER NWS OR FAA QUALITY CONTROL.

ALZ061>064-262000-
COASTAL ALABAMA

CITY           SKY/WX    TMP DP  RH WIND       PRES   REMARKS
MOBILE REG APT MOSUNNY   91  70  49 N3        29.97F HX  96
BROOKLEY FIELD MOSUNNY   87  73  62 S12       29.97F
USA CAMPUS*    NOT AVBL
DOG RIVER*     NOT AVBL


CITY           SKY/WX    TMP DP  RH WIND       PRES   REMARKS
MOUNT VERNON*  NOT AVBL
SARALAND*      NOT AVBL
BAY MINETTE*   NOT AVBL
LOXLEY*        NOT AVBL
ROBERTSDALE*   NOT AVBL
FAIRHOPE*      NOT AVBL
ELBERTA*       NOT AVBL
FOLEY*         NOT AVBL
GRAND BAY*     NOT AVBL
DAUPHIN ISLND* NOT AVBL
BON SCOUR NWR* NOT AVBL
GULF SHORES    TSTM      76  75  98 N12       29.98F

$$

ALZ051>060-262000-
INTERIOR SOUTHWEST AND SOUTH CENTRAL ALABAMA

CITY           SKY/WX    TMP DP  RH WIND       PRES   REMARKS
GREENVILLE     NOT AVBL
EVERGREEN      SUNNY     88  68  51 VRB5      29.97F
CASTLEBERRY*   NOT AVBL
ATMORE*        NOT AVBL
DIXIE*         NOT AVBL
ANDALUSIA/OPP  SUNNY     93  68  43 S3        29.96F HX  97
ANDALUSIA*     NOT AVBL
FLORALA APT    NOT AVBL
FLORALA*       NOT AVBL

$$

FLZ001>006-262000-
WESTERN FLORIDA PANHANDLE

CITY           SKY/WX    TMP DP  RH WIND       PRES   REMARKS
PENSACOLA      PTSUNNY   80  66  62 W12       29.97F THUNDER
NAS PENSACOLA  TSTM      75  73  93 NW8       29.98S
MILTON         PTSUNNY   82  72  71 S14       29.96F THUNDER
WHTNG S FIELD  PTSUNNY   83  73  72 SE12      29.97F


CITY           SKY/WX    TMP DP  RH WIND       PRES   REMARKS
WALNUT HILL*   NOT AVBL
JAY*           NOT AVBL
DUKE FIELD     PTSUNNY   89  69  50 SW5       29.94F
CRESTVIEW      PTSUNNY   90  68  48 VRB6      29.96F
VALPARAISO     MOSUNNY   90  70  51 E3        29.95F HX  95
DESTIN         PTSUNNY   90  74  59 VRB5      29.96F HX  99

$$

MSZ076-079-262000-
INTERIOR SOUTHEAST MISSISSIPPI

CITY           SKY/WX    TMP DP  RH WIND       PRES   REMARKS
LEAKESVILLE*   NOT AVBL
AGRICOLA*      NOT AVBL

$$

MARINE OBSERVATIONS

STATION/POSITION TIME  TEMP    WIND        PRES    WAVE
                       AIR SEA DIR/SP/G            HT/PER
                 (UTC) (F)     (DEG/KT/KT) (MB)    (FT/S)
PASCAGOULA       1800   89     360/  3/  5 1015.4F
PETIT BOIS ISLND 1800   85     220/  3/  4 1016.5F
GRAND BAY        1700   85     170/  5     1017.0S
KATRINA CUT      1800   83     190/  3     1016.3F
CEDAR POINT      1800   84     190/  3     1015.9F
E DAUPHIN ISLAND 1800   83     120/  2/  3 1015.3F
MIDDLE BAY LIGHT 1800   86        CALM     1015.2F
USCG MOBILE BAY  1800   84 85  120/  6/  7 1015.8F
STATE DOCKS      1800   95 86              1015.1F
MEAHER PARK      1800   85     200/  3     1015.2F
WEEKS BAY        1700   87                   N/A
FORT MORGAN      1800   84     280/  4/  5 1015.1F
12 S ORANGE BCH  1850   83 88  170/  2/  4 1015.2F   1
PENSACOLA BAY    1800   86 86  190/  4/  6 1015.6F
64 S DAUPHIN ISL 1800   83 86   40/  4/  6 1015.5F
67 S FORT MORGAN 1830   84      30/  6     1015.2F

$$

SELECTED LOCATIONS ACROSS THE REGION

CITY           SKY/WX    TMP DP  RH WIND       PRES   REMARKS
NEW ORLEANS    MOSUNNY   93  71  48 NE7       29.97F HX 100
GULFPORT       SUNNY     91  69  48 CALM      29.95F HX  96
PASCAGOULA AP  PTSUNNY   90  73  57 CALM      29.96F HX  98
PASCAGOULA*    NOT AVBL
HATTIESBURG    SUNNY     90  70  51 VRB3      29.98F HX  95
LAUREL         MOSUNNY   91  70  49 W6        29.99F HX  97
MERIDIAN       MOSUNNY   95  66  38 VRB3      29.96F HX  98
JACKSON        MOSUNNY   91  68  46 N10       29.99F HX  95
MONTGOMERY     MOSUNNY   92  65  40 CALM      29.96F
TROY           PTSUNNY   85  71  63 E6        29.99F
KINSTON*       NOT AVBL
GENEVA*        NOT AVBL
ASHFORD*       NOT AVBL
DOTHAN         TSTM      80  70  71 E9        30.02F
PANAMA CITY    NOT AVBL

$$





USA.gov is the U.S. government's official web portal to all federal, state and local government web resources and services.